| time (UTC) | temp F | wind direction | speed knots | gust knots | rain 1hr in | rain 24hr in | rain mn in | humidity % | barometer mb |
| 20260902134609 | 76 | 273 | 5.2 | 12.2 | 0.00 | 0.00 | 0.00 | 44 | 1018.0 |
| 20260902133053 | 76 | 360 | 3.5 | 10.4 | 0.00 | 0.00 | 0.00 | 43 | 1018.0 |
| 20260902131552 | 75 | 0 | 0.0 | 7.0 | 0.00 | 0.00 | 0.00 | 45 | 1018.0 |
| 20260902130053 | 75 | 318 | 4.3 | 9.6 | 0.00 | 0.00 | 0.00 | 48 | 1018.0 |
| 20260902124556 | 76 | 0 | 0.0 | 4.3 | 0.00 | 0.00 | 0.00 | 47 | 1018.1 |
| 20260902123059 | 75 | 0 | 0.0 | 10.4 | 0.00 | 0.00 | 0.00 | 49 | 1018.2 |
| 20260902121553 | 75 | 253 | 0.0 | 10.4 | 0.00 | 0.00 | 0.00 | 49 | 1018.4 |
| 20260902114554 | 74 | 360 | 7.0 | 11.3 | 0.00 | 0.00 | 0.00 | 49 | 1018.7 |
| 20260902113051 | 74 | 0 | 0.0 | 7.8 | 0.00 | 0.00 | 0.00 | 53 | 1018.6 |
| 20260902111551 | 73 | 360 | 0.0 | 6.1 | 0.00 | 0.00 | 0.00 | 55 | 1018.7 |
| 20260902110054 | 72 | 0 | 0.0 | 3.5 | 0.00 | 0.00 | 0.00 | 56 | 1018.9 |
| 20260902104551 | 71 | 288 | 0.0 | 3.5 | 0.00 | 0.00 | 0.00 | 58 | 1018.9 |
| 20260902103046 | 71 | 0 | 0.0 | 1.7 | 0.00 | 0.00 | 0.00 | 60 | 1019.1 |
| 20260902101557 | 70 | 0 | 0.0 | 3.5 | 0.00 | 0.00 | 0.00 | 59 | 1019.2 |
| 20260902100052 | 69 | 0 | 0.0 | 1.7 | 0.00 | 0.00 | 0.00 | 60 | 1019.3 |
| 20260902094555 | 68 | 0 | 0.0 | 3.5 | 0.00 | 0.00 | 0.00 | 63 | 1019.3 |
| 20260902093056 | 67 | 0 | 0.0 | 0.0 | 0.00 | 0.00 | 0.00 | 63 | 1019.3 |
| 20260902091554 | 67 | 269 | 0.0 | 2.6 | 0.00 | 0.00 | 0.00 | 64 | 1019.3 |
| 20260902090053 | 67 | 0 | 0.0 | 1.7 | 0.00 | 0.00 | 0.00 | 66 | 1019.2 |
| 20260902084555 | 66 | 0 | 0.0 | 0.0 | 0.00 | 0.00 | 0.00 | 64 | 1019.3 |
| 20260902083049 | 66 | 0 | 0.0 | 0.0 | 0.00 | 0.00 | 0.00 | 68 | 1019.2 |
| 20260902081556 | 65 | 0 | 0.0 | 0.0 | 0.00 | 0.00 | 0.00 | 69 | 1019.1 |
| 20260902080054 | 64 | 0 | 0.0 | 0.0 | 0.00 | 0.00 | 0.00 | 69 | 1018.8 |
| 20260902074608 | 62 | 0 | 0.0 | 0.0 | 0.00 | 0.00 | 0.00 | 72 | 1018.8 |
| 20260902073044 | 62 | 0 | 0.0 | 0.9 | 0.00 | 0.00 | 0.00 | 75 | 1018.9 |
| 20260902071553 | 60 | 0 | 0.0 | 0.0 | 0.00 | 0.00 | 0.00 | 76 | 1018.9 |
| 20260902070056 | 59 | 0 | 0.0 | 0.0 | 0.00 | 0.00 | 0.00 | 78 | 1018.9 |
| 20260902064551 | 58 | 0 | 0.0 | 0.0 | 0.00 | 0.00 | 0.00 | 77 | 1019.1 |
| 20260902063113 | 57 | 0 | 0.0 | 0.0 | 0.00 | 0.00 | 0.00 | 80 | 1019.2 |
| 20260902061554 | 55 | 0 | 0.0 | 0.0 | 0.00 | 0.00 | 0.00 | 80 | 1019.1 |
| 20260902060106 | 53 | 167 | 0.0 | 4.3 | 0.00 | 0.00 | 0.00 | 82 | 1019.1 |
| 20260902054552 | 51 | 0 | 0.0 | 4.3 | 0.00 | 0.00 | 0.00 | 84 | 1019.1 |
| 20260902053056 | 50 | 158 | 0.0 | 2.6 | 0.00 | 0.00 | 0.00 | 82 | 1018.9 |
| 20260902051557 | 50 | 0 | 0.0 | 2.6 | 0.00 | 0.00 | 0.00 | 81 | 1018.9 |
| 20260902050049 | 50 | 164 | 0.0 | 0.0 | 0.00 | 0.00 | 0.00 | 81 | 1018.7 |
| 20260902044556 | 50 | 0 | 0.0 | 0.0 | 0.00 | 0.00 | 0.00 | 81 | 1018.8 |
| 20260902043114 | 50 | 0 | 0.0 | 3.5 | 0.00 | 0.00 | 0.00 | 81 | 1018.8 |
| 20260902041607 | 50 | 0 | 0.0 | 1.7 | 0.00 | 0.00 | 0.00 | 81 | 1018.8 |
| 20260902034604 | 50 | 0 | 0.0 | 3.5 | 0.00 | 0.00 | 0.00 | 80 | 1018.8 |
| 20260902033054 | 51 | 0 | 0.0 | 0.0 | 0.00 | 0.00 | 0.00 | 80 | 1018.8 |
| 20260902031554 | 51 | 0 | 0.0 | 0.0 | 0.00 | 0.00 | 0.00 | 80 | 1018.8 |
| 20260902030050 | 51 | 0 | 0.0 | 0.0 | 0.00 | 0.00 | 0.00 | 80 | 1018.9 |
| 20260902024548 | 51 | 0 | 0.0 | 1.7 | 0.00 | 0.00 | 0.00 | 80 | 1018.9 |
| 20260902023053 | 51 | 0 | 0.0 | 0.0 | 0.00 | 0.00 | 0.00 | 80 | 1019.0 |
| 20260902021554 | 51 | 0 | 0.0 | 0.0 | 0.00 | 0.00 | 0.00 | 79 | 1018.8 |
| 20260902020050 | 52 | 0 | 0.0 | 0.0 | 0.00 | 0.00 | 0.00 | 78 | 1019.1 |
| 20260902014552 | 52 | 0 | 0.0 | 0.0 | 0.00 | 0.00 | 0.00 | 78 | 1019.1 |
| 20260902013052 | 52 | 0 | 0.0 | 0.0 | 0.00 | 0.00 | 0.00 | 78 | 1019.2 |
| 20260902011556 | 52 | 0 | 0.0 | 0.0 | 0.00 | 0.00 | 0.00 | 78 | 1019.2 |
| 20260902010056 | 53 | 0 | 0.0 | 0.0 | 0.00 | 0.00 | 0.00 | 78 | 1019.2 |
| 20260902004558 | 53 | 0 | 0.0 | 0.0 | 0.00 | 0.00 | 0.00 | 78 | 1019.3 |
| 20260902003125 | 53 | 0 | 0.0 | 0.0 | 0.00 | 0.00 | 0.00 | 77 | 1019.2 |
| 20260902001556 | 54 | 0 | 0.0 | 1.7 | 0.00 | 0.00 | 0.00 | 76 | 1019.4 |
| 20260902000057 | 54 | 0 | 0.0 | 0.0 | 0.00 | 0.00 | 0.00 | 76 | 1019.5 |
| 20260901234549 | 54 | 0 | 0.0 | 0.0 | 0.00 | 0.00 | 0.00 | 75 | 1019.5 |
| 20260901233058 | 55 | 0 | 0.0 | 0.0 | 0.00 | 0.00 | 0.00 | 75 | 1019.5 |
| 20260901231602 | 55 | 0 | 0.0 | 0.0 | 0.00 | 0.00 | 0.00 | 75 | 1019.4 |
| 20260901230053 | 56 | 0 | 0.0 | 0.0 | 0.00 | 0.00 | 0.00 | 75 | 1019.5 |
| 20260901224554 | 56 | 0 | 0.0 | 0.0 | 0.00 | 0.00 | 0.00 | 74 | 1019.5 |
| 20260901223054 | 56 | 0 | 0.0 | 0.0 | 0.00 | 0.00 | 0.00 | 74 | 1019.6 |
| 20260901221556 | 57 | 0 | 0.0 | 0.0 | 0.00 | 0.00 | 0.00 | 74 | 1019.6 |
| 20260901220053 | 57 | 0 | 0.0 | 0.0 | 0.00 | 0.00 | 0.00 | 74 | 1019.8 |
| 20260901214546 | 57 | 0 | 0.0 | 0.0 | 0.00 | 0.00 | 0.00 | 74 | 1019.6 |
| 20260901213056 | 58 | 0 | 0.0 | 0.0 | 0.00 | 0.00 | 0.00 | 74 | 1019.5 |
| 20260901211553 | 58 | 0 | 0.0 | 0.0 | 0.00 | 0.00 | 0.00 | 73 | 1019.6 |
| 20260901210115 | 59 | 0 | 0.0 | 0.0 | 0.00 | 0.00 | 0.00 | 73 | 1019.6 |
| 20260901204558 | 59 | 0 | 0.0 | 0.0 | 0.00 | 0.00 | 0.00 | 72 | 1019.5 |
| 20260901203052 | 59 | 0 | 0.0 | 0.0 | 0.00 | 0.00 | 0.00 | 72 | 1019.5 |
| 20260901201549 | 60 | 0 | 0.0 | 0.0 | 0.00 | 0.00 | 0.00 | 71 | 1019.5 |
| 20260901200057 | 61 | 0 | 0.0 | 0.0 | 0.00 | 0.00 | 0.00 | 70 | 1019.4 |
| 20260901194546 | 61 | 0 | 0.0 | 0.0 | 0.00 | 0.00 | 0.00 | 69 | 1019.3 |
| 20260901193103 | 62 | 0 | 0.0 | 0.0 | 0.00 | 0.00 | 0.00 | 68 | 1019.1 |
| 20260901191608 | 62 | 0 | 0.0 | 0.0 | 0.00 | 0.00 | 0.00 | 67 | 1019.2 |
| 20260901190120 | 63 | 0 | 0.0 | 0.0 | 0.00 | 0.00 | 0.00 | 66 | 1019.1 |
| 20260901184552 | 64 | 0 | 0.0 | 0.0 | 0.00 | 0.00 | 0.00 | 64 | 1018.9 |
| 20260901183050 | 65 | 0 | 0.0 | 0.0 | 0.00 | 0.00 | 0.00 | 62 | 1018.7 |
| 20260901181546 | 66 | 0 | 0.0 | 0.0 | 0.00 | 0.00 | 0.00 | 60 | 1018.6 |
| 20260901180054 | 67 | 0 | 0.0 | 0.0 | 0.00 | 0.00 | 0.00 | 59 | 1018.6 |
| 20260901174555 | 68 | 0 | 0.0 | 0.0 | 0.00 | 0.00 | 0.00 | 57 | 1018.5 |
| 20260901173047 | 68 | 0 | 0.0 | 0.0 | 0.00 | 0.00 | 0.00 | 56 | 1018.4 |
| 20260901171627 | 68 | 0 | 0.0 | 0.0 | 0.00 | 0.00 | 0.00 | 57 | 1018.3 |
| 20260901170105 | 69 | 0 | 0.0 | 0.9 | 0.00 | 0.00 | 0.00 | 54 | 1018.4 |
| 20260901164609 | 69 | 0 | 0.0 | 3.5 | 0.00 | 0.00 | 0.00 | 54 | 1018.4 |
| 20260901163109 | 71 | 0 | 0.0 | 3.5 | 0.00 | 0.00 | 0.00 | 51 | 1018.5 |
| 20260901161603 | 72 | 352 | 0.0 | 3.5 | 0.00 | 0.00 | 0.00 | 51 | 1018.5 |
| 20260901160053 | 70 | 0 | 0.0 | 2.6 | 0.00 | 0.00 | 0.00 | 53 | 1018.3 |
| 20260901154557 | 73 | 291 | 0.9 | 7.0 | 0.00 | 0.00 | 0.00 | 50 | 1018.3 |
| 20260901153052 | 72 | 9 | 0.0 | 7.0 | 0.00 | 0.00 | 0.00 | 52 | 1018.3 |
| 20260901151550 | 73 | 304 | 2.6 | 7.8 | 0.00 | 0.00 | 0.00 | 49 | 1018.3 |
| 20260901144606 | 73 | 0 | 0.9 | 9.6 | 0.00 | 0.00 | 0.00 | 49 | 1018.3 |
| 20260901143055 | 73 | 291 | 0.9 | 7.0 | 0.00 | 0.00 | 0.00 | 48 | 1018.4 |
| 20260901141552 | 72 | 315 | 1.7 | 7.0 | 0.00 | 0.00 | 0.00 | 52 | 1018.4 |